Volver al catálogo

ARIANE 5 R/B

ActivoHEO
NORAD 44802·ROCKET BODY·🇫🇷 France

Lanzado Nov 26, 2019 desde Guiana Space Centre

Loading…

Próximos Pases (próximas 24 horas)

TLE

ActualizadoSource: Space-Track

Época: Sep 13, 2026, 16:28 UTC

1 44802U 19080C   26256.68629981  .00002418  00000-0  40891-3 0  9996
2 44802   5.1694 134.0164 6967100 307.5473   7.6429  2.69506552 61726

Sigue ARIANE 5 R/B en tiempo real con AllMySat

Download on the App Store